Bangkok (Suvarnabhumi), Thailand

9:03 AM +07 on November 17, 2019 (GMT +0700)
Bangkok (Suvarnabhumi)

Weather History for VTBS - October, 2019

Change the Weather History Date:

Thursday, October 24, 2019

  Actual Average (VTBU) Record (VTBU)
Temperature  
Mean Temperature 86 °F -  
Max Temperature 93 °F 89 °F 93 °F (2007)
Min Temperature 80 °F 73 °F 73 °F (2014)
Cooling Degree Days 22    
Growing Degree Days 36 (Base 50)    
Moisture  
Dew Point 77 °F    
Average Humidity 73    
Maximum Humidity 94    
Minimum Humidity 47    
Precipitation  
Precipitation 0.00 in 0.12 in - ()
Sea Level Pressure  
Sea Level Pressure 29.80 in    
Wind  
Wind Speed 5 mph ()    
Max Wind Speed 10 mph    
Max Gust Speed 20 mph    
Visibility 5.6 miles    
Events      
Averages and records for this station are not official NWS values.
T = Trace of Precipitation, MM = Missing Value Source: Averaged Metar Reports

Daily Weather History Graph

Daily Weather History Graph

Search for Another Location

Airport or City:

Astronomy

Oct. 24, 2019 Rise Set
Actual Time 6:08 AM +07 5:52 PM +07
Civil Twilight 5:46 AM +07 6:14 PM +07
Nautical Twilight 5:21 AM +07 6:39 PM +07
Astronomical Twilight 4:56 AM +07 7:04 PM +07
Moon 2:07 AM +07 (10/24) 3:01 PM +07 (10/24)
Length of Visible Light 12h 27m
Length of Day
11h 44m
Waning Crescent, 21% of the Moon is Illuminated
Oct 24
Waning Crescent
Oct 28
New
Nov 4
First Quarter
Nov 12
Full
Nov 20
Last Quarter

Hourly Weather History & Observations

Time (+07) Temp. Heat Index Dew Point Humidity Pressure Visibility Wind Dir Wind Speed Gust Speed Precip Events Conditions
12:00 AM 82.4 °F 90.9 °F 77.0 °F 84% 29.80 in 6.2 mi SSW 5.8 mph - N/A   Partly Cloudy
1:00 AM 84 °F - 79 °F 82% 29.79 in 2 mi Calm Calm - -   Mist
1:00 AM 82.4 °F 92.4 °F 78.8 °F 89% 29.80 in 6.2 mi SSW 4.6 mph - N/A   Partly Cloudy
1:30 AM 84.2 °F 96.1 °F 78.8 °F 84% 29.77 in 6.2 mi South 6.9 mph - N/A   Partly Cloudy
2:00 AM 84.2 °F 96.1 °F 78.8 °F 84% 29.77 in 6.2 mi South 8.1 mph - N/A   Partly Cloudy
2:30 AM 82.4 °F 92.4 °F 78.8 °F 89% 29.77 in 6.2 mi SSW 5.8 mph - N/A   Partly Cloudy
3:00 AM 82.4 °F 92.4 °F 78.8 °F 89% 29.77 in 5.6 mi SSW 4.6 mph - N/A   Partly Cloudy
3:30 AM 82.4 °F 92.4 °F 78.8 °F 89% 29.77 in 5.6 mi SSW 6.9 mph - N/A   Scattered Clouds
4:00 AM 82 °F - 81 °F 94% 29.78 in 2 mi Calm Calm - -   Mist
4:00 AM 82.4 °F 90.9 °F 77.0 °F 84% 29.77 in 5.6 mi SSW 5.8 mph - N/A   Partly Cloudy
4:30 AM 82.4 °F 92.4 °F 78.8 °F 89% 29.77 in 5.6 mi SSW 3.5 mph - N/A   Partly Cloudy
5:00 AM 82.4 °F 92.4 °F 78.8 °F 89% 29.77 in 5.6 mi South 5.8 mph - N/A   Partly Cloudy
5:30 AM 82.4 °F 90.9 °F 77.0 °F 84% 29.80 in 5.6 mi South 5.8 mph - N/A   Partly Cloudy
6:00 AM 82.4 °F 90.9 °F 77.0 °F 84% 29.80 in 5.6 mi South 5.8 mph - N/A   Partly Cloudy
6:30 AM 82.4 °F 90.9 °F 77.0 °F 84% 29.80 in 5.6 mi South 3.5 mph - N/A   Partly Cloudy
7:00 AM 82 °F - 77 °F 81% 29.83 in 1 mi East 3.5 mph - -   Mist
7:00 AM 84.2 °F 96.1 °F 78.8 °F 84% 29.83 in 5.6 mi SSE 5.8 mph - N/A   Partly Cloudy
8:30 AM 87.8 °F 99.7 °F 77.0 °F 70% 29.86 in 6.2 mi South 5.8 mph - N/A   Scattered Clouds
9:00 AM 87.8 °F 99.7 °F 77.0 °F 70% 29.86 in 6.2 mi SE 4.6 mph - N/A   Scattered Clouds
9:30 AM 87.8 °F 99.7 °F 77.0 °F 70% 29.89 in 6.2 mi South 3.5 mph - N/A   Scattered Clouds
10:00 AM 91.4 °F 105.1 °F 77.0 °F 63% 29.86 in 6.2 mi Variable 2.3 mph - N/A   Scattered Clouds
10:30 AM 93.2 °F 107.2 °F 77.0 °F 59% 29.86 in 6.2 mi Variable 2.3 mph - N/A   Scattered Clouds
11:00 AM 89.6 °F 102.2 °F 77.0 °F 66% 29.86 in 6.2 mi Variable 4.6 mph - N/A   Scattered Clouds
11:30 AM 91.4 °F 102.5 °F 75.2 °F 59% 29.86 in 6.2 mi Variable 6.9 mph - N/A   Partly Cloudy
12:00 PM 93.2 °F 105.0 °F 75.2 °F 56% 29.83 in 6.2 mi Variable 6.9 mph - N/A   Partly Cloudy
12:30 PM 93.2 °F 105.0 °F 75.2 °F 56% 29.80 in 6.2 mi East 6.9 mph 19.6 mph N/A   Partly Cloudy
1:00 PM 92 °F - 83 °F 68% 29.78 in 5 mi WNW 9.2 mph - -   Mist
1:00 PM 93.2 °F 102.4 °F 73.4 °F 52% 29.80 in 6.2 mi Variable 6.9 mph - N/A   Partly Cloudy
1:30 PM 95.0 °F 104.5 °F 73.4 °F 49% 29.77 in 6.2 mi SSE 5.8 mph - N/A   Partly Cloudy
2:00 PM 95.0 °F 103.2 °F 71.6 °F 47% 29.77 in 6.2 mi Variable 6.9 mph - N/A   Partly Cloudy
3:30 PM 95.0 °F 103.2 °F 71.6 °F 47% 29.74 in 6.2 mi NNE 3.5 mph - N/A   Partly Cloudy
4:00 PM 92 °F - 81 °F 64% 29.74 in 4 mi ESE 2.3 mph - -   Mist
4:00 PM 95.0 °F 103.2 °F 71.6 °F 47% 29.74 in 6.2 mi ESE 6.9 mph - N/A   Partly Cloudy
5:00 PM 91.4 °F 105.1 °F 77.0 °F 63% 29.74 in 6.2 mi SSW 9.2 mph - N/A   Partly Cloudy
5:30 PM 89.6 °F 99.8 °F 75.2 °F 62% 29.74 in 6.2 mi SSW 10.4 mph - N/A   Partly Cloudy
6:00 PM 87.8 °F 99.7 °F 77.0 °F 70% 29.77 in 6.2 mi SSW 8.1 mph - N/A   Partly Cloudy
6:30 PM 86.0 °F 95.1 °F 75.2 °F 70% 29.77 in 6.2 mi SSW 6.9 mph - N/A   Partly Cloudy
7:00 PM 86 °F - 79 °F 74% 29.77 in 4 mi South 3.5 mph - -   Mist
7:00 PM 86.0 °F 96.9 °F 77.0 °F 74% 29.77 in 6.2 mi SSW 8.1 mph - N/A   Partly Cloudy
7:30 PM 86.0 °F 96.9 °F 77.0 °F 74% 29.77 in 6.2 mi SSW 8.1 mph - N/A   Partly Cloudy
8:00 PM 84.2 °F 94.1 °F 77.0 °F 79% 29.80 in 6.2 mi SSW 5.8 mph - N/A   Partly Cloudy
8:30 PM 84.2 °F 94.1 °F 77.0 °F 79% 29.83 in 6.2 mi SSW 5.8 mph - N/A   Partly Cloudy
9:00 PM 84.2 °F 94.1 °F 77.0 °F 79% 29.83 in 6.2 mi SSW 5.8 mph - N/A   Partly Cloudy
9:30 PM 84.2 °F 94.1 °F 77.0 °F 79% 29.83 in 6.2 mi SW 5.8 mph - N/A   Partly Cloudy
10:00 PM 85 °F - 80 °F 81% 29.84 in 4 mi South 2.3 mph - -   Mist
10:00 PM 84.2 °F 94.1 °F 77.0 °F 79% 29.86 in 6.2 mi SSW 4.6 mph - N/A   Partly Cloudy
10:30 PM 84.2 °F 94.1 °F 77.0 °F 79% 29.86 in 6.2 mi SSW 5.8 mph - N/A   Partly Cloudy
11:00 PM 84.2 °F 94.1 °F 77.0 °F 79% 29.83 in 6.2 mi SSW 5.8 mph - N/A   Partly Cloudy